TimeCST,TemperatureF,Dew PointF,Humidity,Sea Level PressureIn,VisibilityMPH,Wind Direction,Wind SpeedMPH,Gust SpeedMPH,PrecipitationIn,Events,Conditions,WindDirDegrees,DateUTC
12:51 AM,53.6,48.2,82,30.31,10.0,East,8.1,-,N/A,,Clear,90,2013-01-19 06:51:00
1:51 AM,53.1,48.0,83,30.30,10.0,East,6.9,-,N/A,,Clear,90,2013-01-19 07:51:00
2:51 AM,54.0,48.0,80,30.28,10.0,East,8.1,-,N/A,,Clear,80,2013-01-19 08:51:00
3:51 AM,53.1,48.0,83,30.27,10.0,Calm,Calm,-,N/A,,Clear,0,2013-01-19 09:51:00
4:51 AM,46.9,43.0,86,30.26,10.0,North,4.6,-,N/A,,Clear,360,2013-01-19 10:51:00
5:51 AM,46.9,44.1,90,30.27,10.0,North,4.6,-,N/A,,Clear,360,2013-01-19 11:51:00
6:51 AM,45.0,42.1,90,30.28,10.0,North,5.8,-,N/A,,Partly Cloudy,10,2013-01-19 12:51:00
7:51 AM,46.0,43.0,89,30.29,10.0,North,3.5,-,N/A,,Partly Cloudy,10,2013-01-19 13:51:00
8:51 AM,57.0,51.1,81,30.30,10.0,Calm,Calm,-,N/A,,Partly Cloudy,0,2013-01-19 14:51:00
9:51 AM,64.9,52.0,63,30.31,10.0,ESE,8.1,-,N/A,,Partly Cloudy,120,2013-01-19 15:51:00
10:51 AM,68.0,48.9,50,30.30,10.0,SE,12.7,-,N/A,,Scattered Clouds,130,2013-01-19 16:51:00
11:51 AM,71.1,46.9,42,30.28,10.0,SSE,9.2,-,N/A,,Scattered Clouds,150,2013-01-19 17:51:00
12:51 PM,73.0,46.9,39,30.23,10.0,South,11.5,-,N/A,,Partly Cloudy,170,2013-01-19 18:51:00
1:51 PM,73.0,46.0,38,30.19,10.0,South,6.9,-,N/A,,Partly Cloudy,190,2013-01-19 19:51:00
2:51 PM,73.9,45.0,35,30.18,10.0,Variable,5.8,-,N/A,,Partly Cloudy,0,2013-01-19 20:51:00
3:51 PM,73.0,46.9,39,30.16,10.0,ESE,12.7,-,N/A,,Partly Cloudy,120,2013-01-19 21:51:00
4:51 PM,71.1,46.9,42,30.16,10.0,SE,13.8,-,N/A,,Partly Cloudy,130,2013-01-19 22:51:00
5:51 PM,66.9,46.9,49,30.18,10.0,SE,12.7,-,N/A,,Partly Cloudy,140,2013-01-19 23:51:00
6:51 PM,63.0,46.9,56,30.17,10.0,SE,11.5,-,N/A,,Clear,140,2013-01-20 00:51:00
7:51 PM,59.0,46.9,64,30.20,10.0,SE,6.9,-,N/A,,Clear,130,2013-01-20 01:51:00
8:51 PM,57.0,46.9,69,30.22,10.0,ESE,5.8,-,N/A,,Clear,110,2013-01-20 02:51:00
9:51 PM,55.9,46.0,69,30.24,10.0,Calm,Calm,-,N/A,,Clear,0,2013-01-20 03:51:00
10:51 PM,54.0,46.0,75,30.23,10.0,East,3.5,-,N/A,,Clear,100,2013-01-20 04:51:00
11:51 PM,51.1,46.0,83,30.23,10.0,SE,4.6,-,N/A,,Clear,140,2013-01-20 05:51:00